Date,TemperatureHighF,TemperatureAvgF,TemperatureLowF,DewpointHighF,DewpointAvgF,DewpointLowF,HumidityHigh,HumidityAvg,HumidityLow,PressureMaxIn,PressureMinIn,WindSpeedMaxMPH,WindSpeedAvgMPH,GustSpeedMaxMPH,PrecipitationSumIn
2012-1-1,77.3,66.3,56.7,64.0,60.2,56.0,98,83,56,30.29,30.18,3,1,5,0.01
2012-1-2,67.7,62.2,57.3,67.0,53.7,40.0,96,75,49,30.26,30.11,11,3,19,0.03
2012-1-3,59.9,49.3,42.7,42.0,31.0,-99.9,67,53,45,30.41,30.22,20,-18,28,0.03
2012-1-4,57.6,45.2,37.5,38.0,28.6,14.0,80,55,18,30.46,30.32,4,1,7,0.00
2012-1-5,67.1,53.7,41.2,53.0,47.0,37.0,94,79,60,30.36,30.22,6,1,8,0.00
2012-1-6,70.5,59.7,50.3,60.0,55.3,49.0,98,87,63,30.25,30.14,4,1,7,0.01
2012-1-7,70.5,62.2,55.6,61.0,57.9,55.0,97,87,69,30.20,30.12,5,1,7,0.00
2012-1-8,73.8,61.7,52.4,60.0,56.0,51.0,97,83,53,30.25,30.17,3,0,7,0.01
2012-1-9,76.3,64.7,55.9,63.0,58.7,54.0,94,82,62,30.22,30.09,4,1,7,0.00
2012-1-10,76.1,65.6,57.4,64.0,60.5,56.0,96,84,64,30.11,29.96,9,2,14,0.01
2012-1-11,70.2,66.6,62.7,67.0,63.6,60.0,95,90,84,29.98,29.81,12,2,22,0.05
2012-1-12,74.2,68.2,63.1,66.0,63.2,61.0,95,84,71,29.98,29.86,7,2,11,0.00
2012-1-13,67.2,59.0,53.2,64.0,49.1,43.0,91,70,53,30.26,29.99,12,3,13,0.00
2012-1-14,59.5,53.7,46.9,49.0,37.8,31.0,77,57,36,30.39,30.24,5,1,14,0.00
2012-1-15,68.1,54.7,41.5,51.0,45.4,37.0,94,73,46,30.47,30.36,5,0,10,0.00
2012-1-16,74.9,61.1,49.3,53.0,48.7,43.0,85,65,45,30.46,30.30,6,2,15,0.00
2012-1-17,73.6,63.0,54.7,59.0,55.4,51.0,92,77,58,30.34,30.18,7,1,12,0.00
2012-1-18,71.8,63.4,56.0,64.0,60.5,55.0,96,90,75,30.17,30.03,7,2,11,0.26
2012-1-19,73.6,60.7,51.6,60.0,49.6,40.0,95,70,36,30.20,30.05,3,1,7,0.01
2012-1-20,73.9,62.0,52.8,60.0,53.0,41.0,91,73,53,30.20,30.11,8,2,12,0.00
2012-1-21,72.9,64.3,55.6,62.0,58.4,54.0,94,82,67,30.16,30.06,11,2,14,0.00
2012-1-22,74.6,64.9,57.1,65.0,60.5,56.0,96,86,67,30.14,30.07,4,1,6,0.00
2012-1-23,76.7,67.4,61.1,67.0,63.1,58.0,96,86,70,30.16,30.06,6,1,11,0.00
2012-1-24,77.4,67.4,60.7,67.0,63.7,60.0,97,88,68,30.19,30.11,4,1,6,0.00
2012-1-25,79.2,69.9,63.9,69.0,65.1,61.0,95,85,68,30.17,30.07,6,2,12,0.01
2012-1-26,77.2,70.4,65.0,69.0,66.0,63.0,95,86,73,30.09,29.97,15,4,19,0.00
2012-1-27,71.4,67.0,62.2,67.0,63.7,57.0,96,89,76,30.09,29.93,10,3,17,0.77
2012-1-28,69.7,62.9,56.2,60.0,56.8,54.0,97,81,63,30.20,30.08,6,1,11,0.00
2012-1-29,75.2,64.2,57.0,57.0,54.7,47.0,91,74,38,30.31,30.18,5,1,8,0.00
2012-1-30,75.6,63.3,53.8,56.0,50.3,44.0,88,65,40,30.37,30.25,9,2,12,0.00
2012-1-31,81.5,67.4,56.7,61.0,55.1,51.0,85,66,45,30.34,30.21,11,2,11,0.00
2012-2-1,77.6,68.3,60.5,65.0,61.4,55.0,94,79,63,30.26,30.14,6,1,9,0.00
2012-2-2,76.3,67.4,59.3,66.0,62.0,58.0,96,84,64,30.18,30.09,4,1,10,0.00
2012-2-3,75.2,69.7,63.9,65.0,62.9,61.0,93,79,64,30.22,30.14,12,3,16,0.00
2012-2-4,83.8,71.0,64.5,67.0,64.4,62.0,91,80,54,30.18,30.05,7,2,12,0.00
2012-2-5,77.5,70.7,65.8,70.0,66.6,64.0,95,87,70,30.09,30.00,5,1,7,0.00
2012-2-6,80.7,71.0,67.2,70.0,67.1,66.0,97,88,68,30.08,29.98,4,1,10,0.18
2012-2-7,77.5,69.5,65.8,70.0,66.6,64.0,96,90,77,30.08,30.00,4,1,6,0.00
2012-2-8,73.3,66.1,60.9,65.0,59.2,56.0,93,79,57,30.14,30.03,8,1,13,0.00
2012-2-9,74.1,65.4,59.2,61.0,56.8,52.0,88,74,56,30.18,30.06,3,1,7,0.00
2012-2-10,76.6,66.5,59.5,68.0,62.3,57.0,96,86,73,30.12,29.92,4,1,11,0.42
2012-2-11,64.7,60.4,55.0,63.0,53.2,41.0,96,78,57,30.17,29.90,13,5,21,0.03
2012-2-12,56.2,47.7,40.0,40.0,28.8,22.0,72,49,28,30.37,30.17,7,2,19,0.00
2012-2-13,65.2,51.7,40.9,50.0,37.6,27.0,86,60,37,30.30,30.12,4,1,9,0.00
2012-2-14,71.7,62.0,49.8,63.0,56.1,47.0,93,82,64,30.14,30.06,12,3,18,0.00
2012-2-15,75.1,66.8,61.4,65.0,62.4,60.0,96,86,66,30.21,30.11,6,1,10,0.00
2012-2-16,75.9,68.6,62.1,68.0,64.4,60.0,95,87,73,30.18,30.07,7,2,12,0.00
2012-2-17,73.2,68.8,67.0,69.0,66.7,65.0,96,93,84,30.09,30.00,8,2,9,0.00
2012-2-18,75.1,69.6,64.7,69.0,66.7,64.0,98,91,75,30.03,29.89,9,2,12,0.00
2012-2-19,75.2,69.8,64.9,72.0,66.9,57.0,98,90,76,29.98,29.85,10,4,17,0.02
2012-2-20,73.0,64.4,58.3,58.0,54.6,50.0,84,71,51,30.21,29.97,10,2,17,0.00
2012-2-21,77.2,63.8,54.9,63.0,57.0,51.0,94,80,55,30.23,30.12,8,2,10,0.00
2012-2-22,75.1,68.3,61.5,68.0,64.9,60.0,95,89,78,30.12,29.95,11,4,14,0.00
2012-2-23,76.1,71.2,68.7,71.0,69.3,67.0,98,93,83,30.00,29.91,14,5,14,0.00
2012-2-24,77.0,70.3,67.7,72.0,69.0,67.0,98,95,84,30.02,29.93,11,6,16,0.00
2012-2-27,82.4,76.7,70.4,71.0,69.4,67.0,91,79,67,30.28,30.20,7,2,9,0.00
2012-2-28,80.7,72.6,67.7,71.0,68.2,66.0,95,86,71,30.27,30.17,6,2,11,0.00
2012-2-29,80.6,72.1,66.5,71.0,68.2,65.0,97,88,71,30.23,30.11,7,2,12,0.00
2012-3-1,78.3,71.7,65.2,72.0,69.0,64.0,98,91,79,30.13,30.02,8,2,10,0.01
2012-3-2,79.7,74.0,69.6,73.0,70.8,69.0,97,90,77,30.05,29.95,9,3,13,0.01
2012-3-3,79.2,75.1,72.5,74.0,72.4,71.0,96,91,84,29.94,29.82,15,7,20,0.00
2012-3-4,74.5,63.8,56.8,73.0,49.8,38.0,95,63,39,30.24,29.73,26,7,26,0.05
2012-3-5,73.7,63.4,52.9,54.0,45.9,39.0,77,55,30,30.39,30.24,7,2,10,0.00
2012-3-6,80.3,66.1,54.0,58.0,54.3,50.0,90,68,40,30.40,30.29,15,3,17,0.00
2012-3-7,84.0,71.2,60.7,63.0,59.1,56.0,86,67,44,30.37,30.24,7,3,14,0.00
2012-3-8,88.0,73.3,64.1,69.0,65.6,62.0,94,78,45,30.27,30.14,7,2,15,0.00
2012-3-9,80.0,73.2,65.9,71.0,68.4,64.0,95,85,71,30.21,30.11,8,2,11,0.00
2012-3-10,84.6,73.3,66.7,70.0,66.7,64.0,93,80,54,30.22,30.12,6,1,11,0.00
2012-3-11,82.5,72.0,67.2,71.0,67.3,65.0,95,86,61,30.27,30.16,7,2,14,0.50
2012-3-12,83.4,72.7,66.0,69.0,65.1,60.0,91,78,54,30.27,30.18,7,2,13,0.00
2012-3-13,82.6,71.6,63.8,66.0,63.0,60.0,90,75,48,30.25,30.15,6,2,13,0.00
2012-3-14,85.5,72.0,60.9,68.0,63.7,59.0,95,76,48,30.25,30.13,6,1,13,0.00
2012-3-15,86.6,74.6,64.1,69.0,64.9,62.0,94,73,48,30.25,30.12,7,1,11,0.00
2012-3-16,80.8,73.0,65.7,69.0,65.0,62.0,94,77,57,30.24,30.12,8,2,11,0.00
2012-3-17,86.7,74.1,63.7,68.0,63.2,58.0,92,70,40,30.24,30.12,7,2,13,0.00
2012-3-18,84.7,72.4,63.1,69.0,63.3,58.0,90,74,40,30.25,30.12,8,2,12,0.00
2012-3-19,83.9,72.7,64.2,67.0,63.4,58.0,91,74,42,30.19,30.06,7,2,10,0.00
2012-3-20,83.3,72.4,64.7,68.0,64.0,59.0,88,76,52,30.11,30.01,8,2,11,0.02
2012-3-21,83.4,73.7,65.9,72.0,67.6,62.0,95,82,64,30.14,30.01,12,3,15,0.27
2012-3-22,84.2,74.8,68.1,72.0,69.5,66.0,95,84,64,30.16,30.05,8,2,13,0.03
2012-3-23,80.5,75.0,68.5,72.0,69.3,66.0,92,83,71,30.13,30.02,6,2,11,0.00
2012-3-24,79.7,74.5,69.3,71.0,69.4,68.0,96,85,70,30.05,29.94,10,4,14,0.00
2012-3-25,78.4,73.4,68.8,71.0,65.1,56.0,95,76,55,29.95,29.87,10,3,15,0.96
2012-3-26,80.6,73.8,64.1,64.0,60.6,57.0,84,65,48,30.04,29.91,6,2,13,0.00
2012-3-27,86.3,73.0,61.9,67.0,60.2,50.0,92,67,38,30.17,30.02,6,1,10,0.00
2012-3-28,83.1,73.2,64.3,67.0,62.6,58.0,87,71,46,30.19,30.05,5,2,11,0.00
2012-3-29,80.6,73.6,66.6,69.0,66.8,64.0,91,80,62,30.09,29.99,7,1,9,0.00
2012-3-30,81.0,73.6,66.9,69.0,66.3,64.0,94,79,58,30.07,29.98,8,2,15,0.00
2012-3-31,79.8,74.3,68.8,74.0,69.6,66.0,92,85,80,30.00,29.91,9,4,15,0.29
2012-4-1,80.4,75.3,69.7,70.0,67.9,65.0,89,78,68,29.98,29.89,5,2,11,0.00
2012-4-2,81.9,75.4,66.8,72.0,68.5,65.0,94,80,66,29.95,29.86,5,1,10,0.00
2012-4-3,84.8,75.0,66.2,71.0,67.6,65.0,97,79,58,30.00,29.91,7,1,10,0.01
2012-4-4,81.7,74.8,65.6,74.0,69.2,64.0,94,83,73,29.98,29.83,13,2,19,0.19
2012-4-5,81.8,75.3,68.5,72.0,68.8,66.0,94,81,68,29.90,29.73,8,2,12,0.15
2012-4-6,80.9,75.6,69.3,72.0,66.7,59.0,85,74,55,29.95,29.76,11,4,17,0.00
2012-4-7,85.4,73.0,62.3,64.0,59.2,54.0,84,64,41,30.14,29.96,8,2,15,0.00
2012-4-8,81.7,71.1,63.1,62.0,57.3,54.0,78,63,40,30.18,30.07,9,2,14,0.00
2012-4-9,81.8,71.7,62.4,65.0,60.9,57.0,82,70,50,30.11,30.00,5,2,10,0.00
2012-4-10,82.1,73.6,63.5,65.0,62.5,60.0,89,70,50,30.10,29.99,5,1,11,0.00
2012-4-11,80.8,75.1,70.5,66.0,63.8,61.0,83,69,52,30.08,30.00,6,2,13,0.00
2012-4-12,82.7,75.4,68.3,66.0,57.8,49.0,82,57,32,30.09,29.99,7,2,12,0.00
2012-4-13,81.0,73.2,65.1,70.0,65.2,60.0,90,76,63,30.11,30.03,6,2,8,0.00
2012-4-14,83.5,75.0,67.4,67.0,64.5,61.0,89,71,54,30.20,30.09,9,3,17,0.00
2012-4-15,82.5,74.1,65.8,68.0,62.8,60.0,82,69,50,30.20,30.13,9,3,16,0.00
2012-4-16,83.4,75.0,65.7,67.0,62.7,59.0,83,67,46,30.20,30.11,8,2,12,0.00
2012-4-17,84.3,75.1,66.7,66.0,62.9,60.0,82,67,45,30.16,30.04,9,2,12,0.00
2012-4-18,80.4,75.5,69.5,70.0,67.2,62.0,83,76,66,30.09,29.97,12,4,16,0.00
2012-4-19,79.7,75.0,71.9,73.0,70.5,69.0,92,86,75,29.98,29.88,9,3,15,0.04
2012-4-20,81.9,76.2,70.2,74.0,71.3,67.0,96,85,75,29.93,29.83,12,3,13,0.62
2012-4-21,76.6,69.6,67.1,71.0,67.7,66.0,96,93,82,29.89,29.73,9,4,16,0.62
2012-4-23,72.3,68.6,65.2,54.0,51.0,49.0,60,54,48,29.94,29.85,13,6,21,0.00
2012-4-24,71.9,66.4,59.7,50.0,45.5,39.0,62,48,35,30.06,29.92,10,2,14,0.00
2012-4-25,76.7,68.0,55.4,59.0,52.9,48.0,82,60,38,30.14,30.04,4,1,9,0.00
2012-4-26,78.9,72.2,63.6,66.0,62.2,58.0,86,71,60,30.16,30.07,9,2,11,0.00
2012-4-27,80.7,72.4,63.0,67.0,64.1,61.0,95,77,53,30.14,30.05,7,2,10,0.00
2012-4-28,83.7,75.2,67.0,73.0,69.2,64.0,93,82,65,30.10,30.01,9,1,11,0.03
2012-4-29,86.3,77.2,69.4,72.0,69.3,66.0,94,78,53,30.09,30.00,12,2,14,0.05
2012-4-30,87.6,78.0,69.2,71.0,67.5,65.0,93,72,48,30.09,29.98,12,4,21,0.00
2012-5-1,90.3,79.2,71.1,72.0,69.1,67.0,90,73,49,30.07,29.95,10,3,17,0.00
2012-5-2,90.3,79.0,71.3,74.0,70.5,67.0,93,76,48,30.09,29.99,7,2,15,0.00
2012-5-3,83.8,77.4,70.2,73.0,70.3,68.0,93,79,64,30.10,30.02,12,2,12,0.00
2012-5-4,84.8,78.0,72.5,73.0,71.0,69.0,90,79,64,30.10,29.99,7,2,11,0.00
2012-5-5,84.0,77.6,69.9,74.0,71.4,67.0,95,81,69,30.04,29.94,7,2,10,0.00
2012-5-6,84.2,78.1,71.1,74.0,70.8,69.0,94,79,63,30.00,29.91,10,2,12,0.00
2012-5-7,83.8,77.7,71.2,73.0,70.4,69.0,92,79,66,29.94,29.86,7,2,11,0.00
2012-5-8,84.0,76.8,69.3,73.0,70.3,67.0,94,81,66,29.93,29.85,5,1,9,0.00
2012-5-9,84.9,79.8,75.9,75.0,73.1,71.0,86,80,71,29.91,29.80,10,3,13,0.00
2012-5-10,83.7,79.1,75.2,73.0,68.6,59.0,85,71,53,29.93,29.79,7,2,12,0.00
2012-5-11,89.8,78.7,67.6,73.0,66.9,61.0,90,68,44,30.11,29.92,8,2,13,0.00
2012-5-12,89.3,79.7,71.5,75.0,67.9,62.0,81,68,48,30.15,30.05,9,3,11,0.00
2012-5-13,84.7,77.5,71.6,72.0,68.1,64.0,80,73,62,30.13,30.01,7,2,10,0.00
2012-5-14,83.1,78.7,74.2,75.0,72.6,70.0,89,81,71,30.06,29.94,9,2,12,0.00
2012-5-15,85.6,79.0,72.2,76.0,72.5,69.0,91,81,67,30.03,29.94,6,1,11,0.00
2012-5-16,82.5,75.6,68.7,75.0,71.0,68.0,97,86,68,30.02,29.91,8,1,14,1.23
2012-5-17,83.7,76.8,69.5,74.0,71.0,68.0,97,83,66,29.95,29.88,7,1,11,0.74
2012-5-18,85.0,78.9,70.7,74.0,70.6,68.0,94,76,60,29.95,29.88,6,1,9,0.00
2012-5-19,88.7,79.3,71.9,74.0,70.8,67.0,94,76,55,29.99,29.88,7,2,12,0.00
2012-5-20,86.8,78.3,70.3,71.0,67.1,58.0,89,70,40,29.99,29.91,7,2,13,0.00
2012-5-21,88.6,78.8,68.0,68.0,63.8,50.0,89,62,26,30.01,29.92,7,2,11,0.00
2012-5-22,85.3,78.0,68.5,71.0,67.8,64.0,92,72,54,29.98,29.88,9,1,10,0.00
2012-5-23,86.8,80.5,69.9,73.0,69.8,64.0,93,71,48,29.93,29.82,5,1,10,0.00
2012-5-24,95.3,81.1,73.3,77.0,72.7,69.0,93,77,49,29.92,29.81,8,2,11,0.00
2012-5-25,91.9,81.6,74.4,77.0,73.9,70.0,92,78,56,30.04,29.90,6,2,12,0.00
2012-5-26,88.7,81.6,73.8,75.0,72.4,68.0,93,75,54,30.06,29.95,8,2,13,0.00
2012-5-27,87.2,81.6,75.5,78.0,74.5,69.0,88,79,67,29.99,29.85,9,2,13,0.00
2012-5-28,87.1,82.4,76.2,78.0,76.7,71.0,93,83,74,29.93,29.83,14,5,19,0.25
2012-5-29,85.9,81.5,79.6,77.0,75.2,74.0,85,81,74,29.96,29.88,12,4,14,0.00
2012-5-30,87.2,82.3,79.4,78.0,76.0,74.0,87,81,72,29.93,29.85,9,3,13,0.00
2012-5-31,86.1,81.7,78.5,76.0,74.8,73.0,88,80,68,29.94,29.87,8,2,11,0.00
2012-6-1,80.8,76.7,73.2,75.0,73.2,71.0,96,89,77,29.95,29.86,21,3,27,0.76
2012-6-2,86.5,80.9,74.8,77.0,73.8,72.0,96,79,68,29.99,29.89,8,2,11,0.00
2012-6-3,86.7,81.3,74.9,74.0,72.0,71.0,87,74,60,30.06,29.95,7,2,9,0.00
2012-6-4,86.6,81.6,77.4,78.0,74.8,71.0,90,80,70,30.00,29.86,6,2,10,0.03
2012-6-5,85.0,80.5,76.1,77.0,75.6,73.0,93,85,75,29.90,29.81,7,2,12,0.04
2012-6-6,84.0,79.6,74.3,79.0,75.3,70.0,95,87,78,29.92,29.84,12,4,21,0.24
2012-6-7,85.3,79.3,73.6,79.0,75.6,72.0,95,88,82,29.96,29.89,14,4,22,2.34
2012-6-8,88.9,80.0,72.1,78.0,74.1,70.0,97,83,67,30.01,29.89,8,2,17,1.42
2012-6-9,87.7,80.1,70.7,79.0,75.7,70.0,97,86,75,30.02,29.89,11,3,13,0.09
2012-6-10,90.5,83.0,76.2,81.0,76.7,72.0,94,81,63,30.12,29.97,10,2,18,0.00
2012-6-11,90.5,83.2,75.1,79.0,74.9,71.0,88,77,62,30.12,30.04,6,2,11,0.00
2012-6-12,88.5,82.3,74.9,78.0,73.8,70.0,87,76,62,30.08,29.96,6,2,11,0.00
2012-6-13,87.9,83.6,79.4,78.0,76.1,74.0,86,78,65,30.00,29.90,10,2,13,0.00
2012-6-14,88.8,83.4,75.6,77.0,74.7,70.0,85,75,61,30.01,29.90,7,2,12,0.00
2012-6-15,90.4,80.8,73.5,76.0,72.4,70.0,93,76,58,30.04,29.94,8,1,11,0.00
2012-6-16,91.6,82.8,74.6,74.0,69.7,62.0,90,67,38,30.04,29.97,11,3,13,0.00
2012-6-17,91.8,82.0,72.8,71.0,67.6,64.0,87,64,43,30.06,29.92,8,2,12,0.00
2012-6-18,91.6,81.4,71.5,69.0,66.2,61.0,86,62,38,30.04,29.95,9,2,12,0.00
2012-6-19,88.0,79.8,72.1,70.0,66.9,63.0,84,66,47,30.06,29.97,8,3,15,0.00
2012-6-20,90.7,79.3,74.2,77.0,72.5,69.0,95,80,57,30.03,29.93,13,3,18,0.81
2012-6-21,88.8,77.9,73.6,77.0,74.3,72.0,95,89,64,29.98,29.86,5,2,15,0.65
2012-6-22,87.2,78.5,74.9,78.0,75.0,74.0,96,89,71,29.91,29.83,11,2,16,0.06
2012-6-23,78.8,76.1,74.0,76.0,74.4,73.0,97,94,85,29.94,29.85,6,2,16,1.11
2012-6-24,81.1,77.6,74.7,79.0,76.4,74.0,98,96,87,29.90,29.68,31,10,43,4.54
2012-6-25,84.0,80.4,76.2,78.0,76.3,74.0,98,87,79,29.71,29.63,28,16,38,1.47
2012-6-26,83.7,80.6,77.2,79.0,76.7,74.0,93,88,82,29.69,29.58,25,11,33,0.32
2012-6-27,84.8,80.2,74.8,77.0,74.2,73.0,95,82,70,30.00,29.69,12,3,21,0.13
2012-6-28,89.8,81.5,72.6,75.0,69.5,65.0,88,68,46,30.09,30.00,6,2,9,0.00
2012-6-29,86.6,80.6,70.8,74.0,71.7,69.0,94,75,59,30.06,29.96,7,1,10,0.00
2012-6-30,87.5,82.8,78.8,76.0,74.6,73.0,87,77,64,30.02,29.94,6,2,9,0.00
2012-7-1,89.1,83.7,78.2,78.0,76.4,75.0,89,79,66,30.10,29.98,6,2,8,0.00
2012-7-2,89.7,83.9,77.5,79.0,76.8,75.0,94,80,66,30.11,30.00,5,2,11,0.00
2012-7-3,88.7,83.5,76.6,77.0,75.2,74.0,93,76,63,30.09,29.99,6,1,10,0.00
2012-7-4,91.5,83.9,76.7,77.0,74.9,72.0,92,75,56,30.10,30.02,5,1,9,0.00
2012-7-5,90.6,84.1,75.6,78.0,74.3,71.0,87,73,58,30.08,29.98,5,1,8,0.00
2012-7-6,90.6,83.9,76.6,78.0,75.5,73.0,91,76,64,30.05,29.99,4,1,8,0.00
2012-7-7,92.4,84.7,76.5,78.0,75.3,72.0,90,74,56,30.09,30.02,7,1,10,0.04
2012-7-8,92.6,84.8,76.8,79.0,76.0,72.0,92,76,55,30.09,29.99,7,1,12,0.00
2012-7-9,92.5,84.5,73.4,79.0,76.0,67.0,92,76,61,30.06,29.95,11,2,25,2.32
2012-7-10,90.4,80.7,73.9,77.0,74.1,71.0,96,81,62,30.06,29.96,8,2,17,0.16
2012-7-11,88.2,79.4,74.6,78.0,73.7,71.0,93,83,67,30.05,29.96,12,2,13,0.00
2012-7-12,90.3,80.8,73.8,77.0,74.5,72.0,96,82,61,30.04,29.95,6,1,21,2.59
2012-7-13,88.7,79.6,74.2,78.0,75.1,73.0,96,87,66,30.06,29.97,9,2,14,0.29
2012-7-14,94.6,81.5,75.0,79.0,75.2,73.0,95,83,50,30.08,30.00,7,1,15,0.52
2012-7-15,89.7,81.1,74.7,77.0,74.6,73.0,96,82,58,30.11,30.02,7,2,10,0.56
2012-7-16,87.1,80.4,74.6,78.0,75.5,73.0,96,85,67,30.08,29.96,4,1,9,0.07
2012-7-17,85.5,79.7,73.9,77.0,74.9,72.0,95,85,76,30.04,29.96,7,2,15,1.67
2012-7-18,88.4,82.9,77.2,78.0,75.5,72.0,92,79,69,30.11,29.99,7,2,12,0.00
2012-7-19,90.1,83.7,77.2,81.0,77.7,75.0,95,82,70,30.17,30.09,5,2,9,0.00
2012-7-20,92.2,84.8,77.8,79.0,77.1,76.0,94,78,62,30.12,30.04,5,1,9,0.00
2012-7-21,91.6,83.9,77.3,79.0,76.6,72.0,90,79,64,30.11,30.03,7,2,15,0.09
2012-7-22,95.4,80.5,72.7,80.0,74.7,70.0,95,83,53,30.15,30.00,12,2,23,1.04
2012-7-23,87.6,79.3,73.1,79.0,74.8,72.0,96,86,74,30.15,30.09,7,2,12,0.06
2012-7-24,89.2,81.8,75.3,80.0,76.5,73.0,95,84,69,30.14,30.04,8,2,9,0.00
2012-7-25,90.5,84.4,78.5,80.0,77.9,73.0,90,81,70,30.06,30.00,9,2,10,0.41
2012-7-26,90.3,85.2,81.2,80.0,77.3,75.0,86,77,68,30.05,29.97,6,2,9,0.00
2012-7-27,91.4,85.6,81.5,77.0,75.9,74.0,83,73,60,30.10,29.99,6,1,9,0.00
2012-7-28,90.6,84.7,77.2,79.0,76.3,75.0,94,76,63,30.12,30.03,5,1,8,0.00
2012-7-29,90.6,85.4,80.1,78.0,76.2,74.0,92,75,64,30.09,30.00,8,2,10,0.05
2012-7-30,90.9,85.4,81.4,78.0,76.5,75.0,84,75,63,30.05,29.99,8,2,11,0.00
2012-7-31,90.1,84.9,81.0,78.0,76.0,74.0,84,75,63,30.05,29.98,7,2,11,0.00
2012-8-1,90.2,85.2,82.2,79.0,76.9,75.0,83,76,66,30.02,29.94,13,2,15,0.00
2012-8-2,90.5,85.3,79.9,78.0,76.5,74.0,83,75,63,30.01,29.93,7,2,12,0.00
2012-8-3,91.8,83.2,76.8,78.0,74.5,70.0,92,76,56,30.03,29.94,6,1,10,0.00
2012-8-4,95.5,84.0,75.4,78.0,74.5,69.0,90,74,45,30.05,29.97,6,1,11,0.00
2012-8-5,90.7,82.6,76.7,80.0,76.0,74.0,92,80,68,30.09,29.99,6,1,11,0.06
2012-8-6,91.4,81.6,75.7,80.0,76.1,73.0,93,84,67,30.09,29.96,7,2,13,0.01
2012-8-7,89.2,82.6,75.1,80.0,77.1,73.0,94,84,71,30.03,29.96,8,2,10,0.00
2012-8-8,92.0,85.4,79.5,80.0,76.9,73.0,87,76,61,30.05,29.97,7,2,10,0.00
2012-8-9,92.3,85.4,77.6,78.0,75.6,72.0,89,73,54,30.03,29.92,6,2,9,0.00
2012-8-10,90.5,85.4,80.8,78.0,76.4,73.0,85,74,63,29.99,29.91,6,2,11,0.00
2012-8-11,91.1,83.9,75.9,78.0,75.4,72.0,90,76,63,30.02,29.92,8,2,14,0.00
2012-8-12,92.2,83.9,77.3,80.0,76.4,72.0,91,78,64,30.04,29.96,8,2,16,0.38
2012-8-13,91.5,84.5,78.2,80.0,77.1,76.0,94,79,63,30.08,30.00,5,1,9,0.00
2012-8-14,91.7,84.8,78.5,80.0,76.8,73.0,93,77,62,30.05,29.98,6,1,11,0.00
2012-8-15,91.0,83.5,76.4,79.0,76.0,72.0,91,79,65,30.06,29.97,6,1,7,0.00
2012-8-16,89.5,83.8,75.0,80.0,77.5,72.0,94,81,70,30.09,29.99,9,2,19,0.22
2012-8-17,90.0,84.7,80.8,79.0,77.1,75.0,89,78,67,30.04,29.93,6,1,12,0.00
2012-8-18,84.8,81.2,75.7,78.0,76.1,72.0,94,84,76,30.02,29.90,10,2,17,0.82
2012-8-19,89.9,84.6,77.3,80.0,77.7,76.0,95,80,69,30.00,29.93,10,3,16,0.14
2012-8-20,89.3,84.3,77.1,80.0,77.4,74.0,94,80,67,30.03,29.91,13,5,24,0.12
2012-8-21,89.9,82.1,72.8,81.0,76.7,72.0,97,84,69,30.11,29.95,13,4,19,1.07
2012-8-22,89.6,79.6,72.7,78.0,74.2,72.0,97,84,66,30.10,30.01,11,3,22,0.00
2012-8-23,90.0,81.8,73.9,77.0,74.2,71.0,92,78,62,30.10,30.01,3,1,8,0.00
2012-8-24,95.1,84.4,75.5,78.0,75.2,72.0,95,75,51,30.05,29.93,8,1,12,0.00
2012-8-25,92.5,82.4,75.0,76.0,73.2,69.0,93,75,55,30.00,29.92,9,2,12,0.00
2012-8-26,84.3,79.8,75.7,78.0,75.6,72.0,96,87,77,29.98,29.77,10,3,17,0.47
2012-8-27,88.2,80.4,75.7,80.0,77.2,75.0,97,90,73,29.83,29.67,21,6,30,1.42
2012-8-28,87.6,83.8,79.6,81.0,78.7,76.0,93,84,74,29.96,29.84,16,8,24,0.01
2012-8-29,87.8,82.1,77.7,80.0,77.5,74.0,95,86,74,29.98,29.90,12,4,20,0.06
2012-8-30,90.5,83.4,77.2,80.0,77.3,75.0,95,82,63,30.11,29.95,9,2,13,0.00
2012-8-31,95.5,85.4,77.6,80.0,76.9,73.0,92,77,55,30.16,30.07,7,1,8,0.00
2012-9-1,94.9,84.9,77.7,79.0,76.3,71.0,95,76,53,30.15,30.03,5,2,10,0.00
2012-9-2,93.3,83.1,75.1,76.0,72.7,66.0,90,72,46,30.09,29.98,7,1,8,0.00
2012-9-3,90.5,82.4,73.2,76.0,72.5,70.0,89,73,52,30.06,29.98,6,1,9,0.00
2012-9-4,89.1,82.4,75.3,77.0,74.6,71.0,96,78,58,30.02,29.94,5,1,9,0.00
2012-9-5,87.9,82.5,76.6,78.0,75.6,72.0,92,80,70,30.00,29.93,9,2,14,0.00
2012-9-6,89.1,83.1,76.6,80.0,76.5,73.0,92,81,67,30.02,29.94,9,3,13,0.00
2012-9-7,87.9,82.2,75.9,79.0,76.2,74.0,96,82,71,30.00,29.91,8,2,11,0.16
2012-9-8,87.9,84.5,81.8,78.0,76.6,75.0,82,77,71,29.97,29.87,13,6,17,0.00
2012-9-9,85.7,82.5,77.1,80.0,77.4,74.0,93,84,79,29.98,29.87,13,4,22,0.80
2012-9-10,89.3,83.7,79.8,78.0,76.4,73.0,86,78,65,30.02,29.93,5,1,8,0.00
2012-9-11,90.4,80.8,75.8,78.0,75.1,72.0,95,83,63,30.12,30.00,10,2,21,0.63
2012-9-12,92.9,82.0,74.5,76.0,72.5,69.0,87,74,54,30.12,30.03,12,2,19,0.00
2012-9-13,89.1,80.1,75.5,76.0,73.7,72.0,90,81,61,30.10,30.00,7,2,14,0.04
2012-9-14,90.8,80.0,73.9,79.0,74.9,72.0,96,85,63,30.06,29.97,9,1,10,1.82
2012-9-15,89.0,80.7,75.7,76.0,74.5,73.0,94,82,62,30.06,29.98,5,2,10,0.01
2012-9-16,87.9,77.9,73.5,76.0,73.7,72.0,96,87,63,30.05,29.97,6,1,13,1.70
2012-9-17,88.8,80.2,73.5,78.0,75.4,72.0,97,86,67,30.01,29.89,12,4,15,0.01
2012-9-18,86.6,81.0,76.3,80.0,76.7,73.0,93,87,77,29.95,29.88,18,6,20,0.40
2012-9-19,85.9,81.4,77.9,78.0,75.8,73.0,94,83,76,30.05,29.90,6,2,9,0.02
2012-9-20,89.4,81.5,74.9,78.0,75.4,73.0,95,82,67,30.04,29.93,4,1,8,0.48
2012-9-21,90.0,79.4,72.8,77.0,73.8,71.0,96,84,61,30.01,29.91,7,1,12,0.80
2012-9-22,88.7,79.4,72.5,77.0,73.6,71.0,96,83,61,30.04,29.94,5,1,9,0.04
2012-9-23,92.4,81.3,73.4,77.0,73.4,69.0,98,79,48,30.08,30.00,9,1,12,0.01
2012-9-24,85.8,78.7,73.5,72.0,64.5,60.0,80,63,43,30.11,30.01,3,1,6,0.00
2012-9-28,83.8,82.7,80.0,71.0,68.5,58.0,67,62,46,30.00,29.94,0,0,0,0.00
2012-9-29,83.8,82.3,80.9,73.0,69.6,61.0,72,66,50,29.99,29.86,0,0,0,0.00
2012-9-30,83.9,82.4,80.6,74.0,70.1,62.0,74,67,51,29.91,29.79,0,0,0,0.00
2012-10-1,83.9,82.7,81.0,75.0,70.5,61.0,76,67,50,29.82,29.74,0,0,0,0.00
2012-10-2,83.9,83.1,82.2,74.0,71.3,66.0,75,68,57,30.02,29.80,0,0,0,0.00
2012-10-3,83.8,82.3,80.8,75.0,72.6,70.0,76,72,64,30.15,30.01,0,0,0,0.00
2012-10-4,83.7,81.7,79.7,75.0,71.0,63.0,77,70,52,30.17,30.07,0,0,0,0.00
2012-10-5,84.0,81.6,79.1,75.0,70.5,63.0,77,69,53,30.12,29.95,0,0,0,0.00
2012-10-6,83.8,82.1,80.5,75.0,71.0,64.0,77,70,53,30.00,29.86,0,0,0,0.00
2012-10-7,83.9,81.7,79.2,74.0,70.5,64.0,75,69,55,29.99,29.90,0,0,0,0.00
2012-10-8,83.8,81.8,79.7,75.0,71.6,68.0,76,71,61,30.03,29.94,0,0,0,0.00
2012-10-9,84.0,82.0,79.6,75.0,70.6,59.0,77,69,48,30.05,29.97,0,0,0,0.00
2012-10-10,83.7,80.8,75.9,73.0,69.5,60.0,83,69,48,30.10,30.02,3,0,6,0.01
2012-10-11,75.3,72.2,69.4,71.0,67.8,67.0,92,86,80,30.12,30.08,2,0,5,0.00
2012-10-12,88.3,81.1,70.4,71.0,67.2,62.0,90,63,51,30.19,30.09,6,1,9,0.00
2012-10-13,88.7,78.2,70.1,70.0,66.6,62.0,86,69,49,30.17,30.06,7,2,13,0.00
2012-10-14,90.0,80.2,71.8,73.0,70.2,68.0,88,73,54,30.11,29.97,8,2,12,0.00
2012-10-15,87.8,79.6,73.9,77.0,73.8,72.0,94,83,66,29.98,29.82,7,1,15,0.00
2012-10-16,87.5,78.1,71.3,75.0,70.6,63.0,96,79,61,29.88,29.80,6,1,12,0.00
2012-10-17,79.9,74.7,71.2,72.0,69.1,63.0,93,83,72,29.90,29.80,2,0,4,0.00
2012-10-18,85.4,77.5,70.0,76.0,72.5,69.0,96,85,70,29.90,29.81,6,1,7,0.01
2012-10-19,85.6,78.4,70.9,76.0,72.6,70.0,97,83,64,29.89,29.82,6,1,8,0.00
2012-10-20,83.6,77.9,70.1,74.0,65.5,57.0,92,67,49,29.97,29.85,8,2,12,0.01
2012-10-21,86.1,74.1,64.7,62.0,58.9,55.0,82,61,39,30.05,29.96,7,1,7,0.00
2012-10-22,86.4,76.1,67.8,67.0,64.1,61.0,84,68,49,30.08,29.96,9,2,13,0.00
2012-10-23,85.3,75.6,67.4,70.0,66.8,63.0,87,75,59,30.05,29.95,8,2,13,0.00
2012-10-24,87.8,77.6,69.4,74.0,68.4,65.0,89,75,51,30.01,29.88,7,2,12,0.00
2012-10-25,84.7,77.2,72.4,75.0,70.8,69.0,90,81,66,29.93,29.78,8,1,13,0.00
2012-10-26,87.9,78.1,73.6,73.0,70.4,66.0,89,78,54,29.80,29.64,12,3,18,0.00
2012-10-27,79.2,76.0,73.4,69.0,66.2,64.0,80,72,64,29.74,29.62,21,6,24,0.00
2012-10-28,75.4,71.8,66.7,69.0,62.2,56.0,81,72,60,29.83,29.71,16,5,23,0.00
2012-10-29,67.6,62.3,62.2,56.0,43.1,-99.9,71,56,45,29.91,29.81,15,-47,23,0.00
2012-10-30,68.5,62.5,61.0,52.0,43.2,-99.9,60,54,48,29.98,29.85,15,-29,19,0.00
2012-10-31,73.2,67.7,60.7,60.0,54.6,49.0,75,64,51,30.07,29.98,6,2,19,0.00
2012-11-1,75.6,71.5,66.4,68.0,64.3,60.0,93,78,67,30.06,29.96,7,1,13,0.00
2012-11-2,77.0,67.2,60.4,64.0,60.1,51.0,97,80,41,30.11,30.02,5,1,9,0.01
2012-11-3,79.2,69.2,60.1,69.0,65.0,59.0,98,87,68,30.15,30.06,5,1,7,0.01
2012-11-4,78.8,69.1,63.6,70.0,64.5,-99.9,98,88,65,30.12,30.02,4,-9,6,0.01
2012-11-5,76.0,72.0,67.1,69.0,66.3,59.0,92,83,62,30.02,29.94,6,1,7,0.00
2012-11-6,67.9,65.0,62.1,65.0,63.2,60.0,95,94,90,29.93,29.90,2,0,4,0.02
2012-11-7,68.2,63.7,64.0,57.0,46.8,-99.9,71,59,54,30.00,0.00,11,-28,18,0.00
2012-11-8,67.6,60.5,54.3,53.0,46.9,41.0,82,62,39,30.18,30.00,5,1,16,0.00
2012-11-9,75.5,61.6,50.2,57.0,50.8,46.0,90,70,43,30.27,30.16,4,0,8,0.00
2012-11-10,79.1,66.7,56.6,57.0,54.0,51.0,84,65,43,30.31,30.20,7,1,11,0.00
2012-11-11,83.9,69.9,59.4,64.0,59.8,56.0,89,72,44,30.27,30.18,7,1,13,0.00
2012-11-12,85.3,72.4,63.5,68.0,65.0,61.0,92,79,49,30.23,30.14,5,1,9,0.00
2012-11-13,82.3,72.1,66.3,70.0,67.0,65.0,95,85,61,30.18,30.09,4,0,8,0.00
2012-11-14,80.9,69.5,64.8,70.0,65.9,64.0,97,89,68,30.18,30.08,3,0,7,0.01
2012-11-15,73.8,67.6,64.1,67.0,64.2,61.0,96,89,76,30.15,30.07,2,1,8,0.00
2012-11-16,68.5,63.7,61.2,61.0,59.2,58.0,91,85,75,30.18,30.08,3,1,6,0.00
2012-11-17,73.4,66.4,60.8,66.0,62.0,58.0,92,86,73,30.15,30.06,5,2,12,0.00
2012-11-18,76.2,66.4,60.7,64.0,60.7,56.0,93,83,62,30.18,30.10,4,1,9,0.00
2012-11-19,69.7,62.1,56.1,61.0,57.1,54.0,95,84,70,30.19,30.07,7,1,10,0.00
2012-11-20,69.5,64.0,59.7,62.0,58.6,55.0,93,83,73,30.11,29.99,7,1,10,0.00
2012-11-21,72.5,65.3,58.7,59.0,57.9,56.0,96,78,56,30.10,30.01,7,2,14,0.00
2012-11-22,75.7,63.3,53.8,58.0,49.7,40.0,94,64,33,30.19,30.09,6,1,11,0.00
2012-11-23,72.2,60.0,48.0,54.0,46.7,39.0,90,64,35,30.24,30.11,6,1,10,0.00
2012-11-24,72.2,62.2,55.1,63.0,56.1,50.0,97,81,64,30.14,30.04,5,1,10,0.00
2012-11-25,67.1,58.8,50.8,51.0,43.7,36.0,83,60,33,30.20,30.09,4,1,7,0.00
2012-11-26,76.7,63.0,50.9,63.0,54.8,44.0,93,76,53,30.22,30.12,5,1,7,0.00
2012-11-27,77.3,67.6,59.6,68.0,63.4,57.0,96,87,69,30.19,30.10,8,1,10,0.00
2012-11-28,73.2,65.5,58.3,65.0,62.2,56.0,98,89,71,30.25,30.12,7,1,13,0.00
2012-11-29,79.9,66.4,57.2,63.0,58.0,55.0,93,76,51,30.27,30.17,7,1,11,0.00
2012-11-30,80.9,68.6,59.4,63.0,59.2,56.0,89,73,51,30.25,30.14,6,1,9,0.00
2012-12-1,80.1,68.3,58.2,65.0,60.2,56.0,95,77,50,30.25,30.15,4,1,9,0.00
2012-12-2,84.0,70.0,62.2,66.0,62.3,59.0,95,79,49,30.27,30.17,8,1,10,0.00
2012-12-3,80.7,70.6,64.5,67.0,62.7,58.0,93,77,55,30.28,30.17,6,1,10,0.00
2012-12-4,80.5,69.4,63.0,60.0,58.4,54.0,85,70,40,30.28,30.17,6,1,9,0.00
2012-12-5,76.5,67.5,59.8,67.0,62.0,57.0,92,83,68,30.19,30.04,4,0,7,0.00
2012-12-6,81.7,70.8,63.9,66.0,64.2,62.0,93,80,55,30.04,29.92,4,1,8,0.00
2012-12-7,77.0,68.5,62.6,69.0,65.0,62.0,96,89,74,30.01,29.92,5,1,8,0.00
2012-12-8,77.7,70.0,64.5,70.0,66.9,63.0,97,90,77,30.05,29.96,6,1,7,0.00
2012-12-9,77.7,68.5,64.4,70.0,66.5,63.0,97,93,77,30.10,30.01,3,0,6,0.00
2012-12-10,75.4,69.6,64.5,73.0,68.5,64.0,98,96,88,30.02,29.86,11,3,17,0.00
2012-12-11,74.3,71.6,69.5,72.0,70.4,69.0,98,96,91,30.03,29.89,7,2,12,0.00
2012-12-12,79.7,72.4,68.0,73.0,70.4,67.0,98,93,77,30.08,29.98,7,2,8,0.00
2012-12-13,73.6,66.8,59.4,67.0,61.0,56.0,97,82,61,30.19,30.06,9,2,14,0.00
2012-12-14,71.4,64.8,60.2,62.0,59.8,58.0,93,84,71,30.16,30.10,4,1,5,0.00
2012-12-15,79.7,67.2,58.2,68.0,63.0,57.0,97,87,65,30.14,30.04,4,1,6,0.00
2012-12-16,77.0,68.6,61.8,68.0,64.9,60.0,96,88,73,30.06,29.95,7,1,10,0.00
2012-12-17,75.4,70.3,64.3,71.0,68.1,63.0,97,92,84,29.99,29.89,8,3,14,0.00
2012-12-18,77.4,70.6,59.5,73.0,67.3,56.0,97,89,75,30.04,29.90,6,2,10,0.00
2012-12-19,75.8,62.9,53.4,59.0,55.6,51.0,97,79,45,30.12,30.04,3,0,6,0.00
2012-12-20,77.4,68.6,56.9,71.0,64.4,51.0,96,87,73,30.08,29.95,13,4,20,0.00
2012-12-21,69.5,59.9,56.7,69.0,47.4,42.0,97,64,53,30.23,29.99,14,6,21,0.01
2012-12-22,61.0,55.1,47.8,46.0,41.4,37.0,87,61,42,30.31,30.21,7,2,14,0.00
2012-12-23,66.8,54.7,43.8,51.0,44.0,34.0,93,70,34,30.27,30.15,6,1,8,0.00
2012-12-24,68.5,60.2,50.4,62.0,53.7,41.0,92,79,61,30.15,29.98,7,1,12,0.00
2012-12-25,72.8,65.3,57.5,63.0,59.6,55.0,93,82,70,30.02,29.88,8,2,12,0.00
2012-12-26,73.7,66.6,58.0,70.0,62.2,51.0,95,86,75,30.03,29.84,14,4,19,0.07
2012-12-27,61.3,55.0,49.5,51.0,49.0,47.0,95,81,66,30.11,30.02,8,1,9,0.00
2012-12-28,73.2,60.0,46.9,66.0,55.0,45.0,97,85,52,30.09,29.93,4,1,9,0.32
2012-12-29,70.8,66.4,58.6,70.0,63.2,50.0,98,89,73,30.17,29.88,11,5,19,0.23
2012-12-30,59.3,51.3,43.8,51.0,42.1,38.0,89,72,51,30.37,30.17,5,1,17,0.00
2012-12-31,72.0,58.4,48.0,59.0,52.6,45.0,95,82,62,30.35,30.19,5,1,8,0.00
2013-1-1,76.0,65.4,56.7,62.0,59.2,55.0,95,81,61,30.22,30.04,8,2,12,0.00